Home   Weather   Tuba City   Past weeks

Flag for USA Past Weather in Tuba City, Arizona, USA — Yesterday and Last 2 Weeks

Now
27 °F

Clear.


Feels Like: 22 °F
Forecast: 31 / 42 °F
Wind: 5 mph from Southwest

Location: Grand Canyon National Park Airport

Current Time: Jan 18, 2017 at 9:49:17 pm

Latest Report: Jan 18, 2017 at 8:54 pm


Visibility: 10 mi

Pressure: 30.10 "Hg (24.87 "Hg at 1510m altitude)

Humidity: 81%

Dew Point: 22 °F

Location of Tuba CityLocation

Past Weather in Tuba City — Graph

°F

Tuba City Temperature Yesterday

Maximum temperature yesterday: 42 °F (at 2:54 pm)
Minimum temperature yesterday: 21 °F (at 2:54 am)
Average temperature yesterday: 30 °F

High & Low Weather Summary for the Past Weeks

 TemperatureHumidityPressure
High52 °F (Jan 8, 2:54 pm)100% (Jan 5, 4:54 am)30.43 "Hg (Jan 5, 4:54 am)
Low1 °F (Jan 6, 7:54 am)31% (Jan 6, 4:54 pm)29.63 "Hg (Jan 5, 7:54 pm)
Average34 °F85%30.05 "Hg
* Reported Jan 3 7:54 pm — Jan 18 7:54 pm, Tuba City, Weather by CustomWeather, © 2017

Note: Actual official high and low records may vary slightly from our data, if they occured in-between our weather recording intervals... More about our weather records

Advertising

Tuba City Weather History for the Previous 24 Hours

Scroll right to see more
 ConditionsComfort  
Time TempWeatherWind HumidityBarometerVisibility
7:54 pm
Wed, Jan 18
25 °FClear.No wind92%30.13 "Hg10 mi
6:54 pm27 °FClear.No wind85%30.11 "Hg10 mi
5:54 pm36 °FClear.3 mph57%30.08 "Hg10 mi
4:54 pm44 °FSunny.8 mph40%30.04 "Hg10 mi
3:54 pm46 °FSunny.16 mph34%30.02 "Hg10 mi
2:54 pm46 °FSunny.14 mph34%30.03 "Hg10 mi
1:54 pm44 °FSunny.12 mph40%30.05 "Hg10 mi
12:54 pm43 °FSunny.13 mph43%30.09 "Hg10 mi
11:54 am41 °FSunny.10 mph65%30.13 "Hg10 mi
10:54 am40 °FSunny.10 mph68%30.14 "Hg10 mi
9:54 am35 °FSunny.3 mph85%30.16 "Hg10 mi
8:54 am25 °FSunny.No wind92%30.21 "Hg10 mi
7:54 am18 °FSunny.No wind92%30.22 "Hg10 mi
6:54 am18 °FClear.No wind88%30.22 "Hg10 mi
5:54 am18 °FClear.3 mph92%30.19 "Hg10 mi
4:54 am19 °FClear.No wind92%30.16 "Hg10 mi
3:54 am20 °FClear.No wind92%30.15 "Hg10 mi
2:54 am21 °FClear.No wind92%30.15 "Hg10 mi
1:54 am22 °FClear.No wind92%30.16 "Hg10 mi
12:54 am22 °FClear.No wind96%30.18 "Hg10 mi
11:54 pm
Tue, Jan 17
23 °FClear.No wind96%30.18 "Hg10 mi
10:54 pm25 °FClear.No wind92%30.18 "Hg10 mi
9:54 pm26 °FPassing clouds.No wind96%30.19 "Hg10 mi
Weather by CustomWeather, © 2017

See weather overviewHow to use our weather pages